TimeMST,TemperatureF,Dew PointF,Humidity,Sea Level PressureIn,VisibilityMPH,Wind Direction,Wind SpeedMPH,Gust SpeedMPH,PrecipitationIn,Events,Conditions,WindDirDegrees,DateUTC
12:57 AM,45.0,23.0,42,29.98,10.0,Calm,Calm,-,N/A,,Clear,0,2012-10-03 07:57:00
1:57 AM,43.0,21.9,43,29.98,10.0,Calm,Calm,-,N/A,,Clear,0,2012-10-03 08:57:00
2:57 AM,44.1,21.9,42,29.98,10.0,Calm,Calm,-,N/A,,Clear,0,2012-10-03 09:57:00
3:57 AM,41.0,21.9,47,30.00,10.0,Calm,Calm,-,N/A,,Clear,0,2012-10-03 10:57:00
4:57 AM,41.0,21.9,47,30.00,10.0,Calm,Calm,-,N/A,,Clear,0,2012-10-03 11:57:00
6:57 AM,43.0,24.1,47,30.03,10.0,Calm,Calm,-,N/A,,Clear,0,2012-10-03 13:57:00
7:57 AM,59.0,28.9,32,30.02,10.0,Calm,Calm,-,N/A,,Clear,0,2012-10-03 14:57:00
8:57 AM,66.9,26.1,21,30.01,10.0,SW,4.6,-,N/A,,Clear,220,2012-10-03 15:57:00
9:57 AM,72.0,23.0,16,30.04,10.0,West,4.6,-,N/A,,Clear,280,2012-10-03 16:57:00
10:57 AM,73.9,21.9,14,30.03,10.0,West,8.1,17.3,N/A,,Clear,270,2012-10-03 17:57:00
11:57 AM,75.0,21.9,14,30.03,10.0,WSW,9.2,19.6,N/A,,Clear,250,2012-10-03 18:57:00
12:57 PM,75.9,21.9,13,30.01,10.0,SW,17.3,27.6,N/A,,Clear,230,2012-10-03 19:57:00
1:57 PM,75.9,21.9,13,30.00,10.0,WSW,11.5,28.8,N/A,,Clear,250,2012-10-03 20:57:00
2:57 PM,78.1,24.1,14,29.99,10.0,WSW,16.1,24.2,N/A,,Clear,240,2012-10-03 21:57:00
3:57 PM,75.0,21.9,14,30.01,10.0,WSW,16.1,29.9,N/A,,Clear,240,2012-10-03 22:57:00
4:57 PM,73.9,21.0,14,30.01,10.0,WSW,17.3,26.5,N/A,,Clear,240,2012-10-03 23:57:00
5:57 PM,71.1,21.0,15,30.03,10.0,WSW,11.5,21.9,N/A,,Clear,240,2012-10-04 00:57:00
6:57 PM,66.9,21.9,18,30.05,10.0,WSW,8.1,-,N/A,,Clear,250,2012-10-04 01:57:00
7:57 PM,64.9,23.0,20,30.01,10.0,WSW,8.1,-,N/A,,Clear,240,2012-10-04 02:57:00
8:57 PM,63.0,23.0,22,30.00,10.0,WSW,9.2,-,N/A,,Clear,250,2012-10-04 03:57:00
9:57 PM,61.0,23.0,23,30.00,10.0,WSW,9.2,-,N/A,,Clear,250,2012-10-04 04:57:00
10:57 PM,60.1,28.0,30,30.00,10.0,West,9.2,-,N/A,,Clear,260,2012-10-04 05:57:00
11:57 PM,55.9,27.0,33,30.01,10.0,West,6.9,-,N/A,,Clear,270,2012-10-04 06:57:00